Regional Weather Roundup
Issued by NWS Albany, NY

Current Version | Previous Version | Graphics & Text | Print | Product List | Glossary Off
Versions: 1 2 3 4 5 6 7 8 9 10 11 12 13 14 15 16 17 18 19 20 21 22 23 24 25 26 27 28 29 30 31 32 33 34 35 36 37 38 39 40 41 42 43 44 45 46 47 48 49 50

000
ASUS41 KALY 212310
RWRALY

NEW YORK STATE HOURLY WEATHER ROUNDUP
NATIONAL WEATHER SERVICE ALBANY NY
700 PM EDT THU AUG 21 2014

NOTE: "FAIR" INDICATES FEW OR NO CLOUDS BELOW 12,000 FEET WITH NO
SIGNIFICANT WEATHER AND/OR NO OBSTRUCTIONS TO VISIBILITY.

NYZ032-033-038>043-046>054-057>066-NYZ062>081-220000-
EAST


CITY           SKY/WX    TMP DP  RH WIND       PRES   REMARKS
ALBANY         MOCLDY    74  64  71 SE8       29.99S
GLENS FALLS    CLOUDY    68  64  87 NE5       30.01S
POUGHKEEPSIE   CLOUDY    75  63  66 SE7       29.99S
NEWBURGH       MOCLDY    75  64  69 VRB6      30.02
MONTGOMERY     LGT RAIN  74  63  68 SE5       30.00S
WHITE PLAINS   MOCLDY    72  57  59 SE8       30.02S
ISLIP          MOCLDY    72  64  76 SE12      30.02S
NEW YORK CITY  MOCLDY    76  56  49 SE13      30.01S
CENTRAL PARK   PTCLDY    74  55  51 MISG      30.04S
$$

NYZ005>009-017-018-044>046-055-056-220000-
CENTRAL


CITY           SKY/WX    TMP DP  RH WIND       PRES   REMARKS
FULTON         CLOUDY    72  67  84 E6        29.95F THUNDER
SYRACUSE       MOCLDY    74  69  85 NE3       29.94R
ROME           MOCLDY    71  68  90 E7        29.98R
ELMIRA         TSTM      76  69  79 SW5       29.96R
BINGHAMTON     MOCLDY    67  63  87 S6        30.01R
MONTICELLO     CLOUDY    68  66  94 S9        30.06R THUNDER
$$

NYZ026>034-041>043-220000-
NORTH


CITY           SKY/WX    TMP DP  RH WIND       PRES   REMARKS
WATERTOWN      MOCLDY    75  65  70 SE3       29.95S
FORT DRUM      NOT AVBL
MASSENA        LGT RAIN  65  65 100 E6        29.99F
SARANAC LAKE   CLOUDY    67  63  87 NE5       30.03R
PLATTSBURGH    CLOUDY    68  58  70 SE8       30.03S
$$

NYZ001>004-010>016-019>021-220000-
WEST


CITY           SKY/WX    TMP DP  RH WIND       PRES   REMARKS
NIAGARA FALLS  PTSUNNY   78  64  61 W5        29.94R
BUFFALO        MOSUNNY   76  63  64 SW10      29.96R
DUNKIRK        PTSUNNY   74  64  71 SW8       29.97S
JAMESTOWN      SUNNY     73  64  73 NW10      30.01S
WELLSVILLE     PTSUNNY   74  65  73 NW6       30.03S
ROCHESTER      PTSUNNY   75  66  73 NE7       29.96R
PENN YAN       PTSUNNY   76  68  76 CALM      29.97R
$$

             KEY
       WCI = WIND CHILL INDEX
       VSB = VISIBILITY
       HX  = HEAT INDEX
$$


USA.gov is the U.S. government's official web portal to all federal, state and local government web resources and services.